Weather in Castell贸n de la Plana

Spain     39掳59鈥06鈥砃   0掳02鈥42鈥矱
temp.,
掳C
wind,
m/s
gust,
m/s
humid.,
%
clouds,
%
prec.,
mm/h
press.,
hPa
HPBL,
m
25 february, thu
thu2501:00+11sw01846 0.1 103231
04:00+11nw118259 0.0 103132
07:00+10nw117834 0.0 103131
10:00+13wnw117110 0.0 1031188
13:00+15sse336023 0.0 1030627
16:00+15se2266100 0.0 1029459
19:00+13s127677 0.0 1029328
22:00+13ssw118285 0.0 1030174
26 february, fri
fri2601:00+12nnw008577 0.0 103128
04:00+11ne118744 0.0 103032
07:00+11nne128672 0.0 103061
10:00+12nne1277100 0.0 1031222
13:00+15ese3263100 0.0 1030555
16:00+15e3363100 0.0 1028486
19:00+13e127192 0.0 1028257
22:00+12wsw117359 0.0 102935
27 february, sat
sat2701:00+12s007747 0.0 102927
04:00+11nw007911 0.0 102927
07:00+11n11806 0.0 102830
10:00+13ene11680 0.0 1028198
13:00+16e34480 0.0 1027822
16:00+16ese44550 0.0 1026626
19:00+14ene23660 0.0 1026445
22:00+13nne117239 0.0 102797
28 february, sun
sun2801:00+12nnw117322 0.0 102726
04:00+11nnw11742 0.0 102637
07:00+11n117612 0.0 102638
10:00+13nnw116615 0.0 1027237
13:00+15ese336039 0.0 1026801
16:00+15ese335984 0.0 1023597
19:00+14e226555 0.0 1024330
22:00+12nne237014 0.0 1025190
1 march, mon
mon101:00+12n12716 0.0 102579
04:00+11n227182 0.0 1024124
07:00+11n237091 0.0 1024171
10:00+12nne4778100 0.0 1024652
13:00+14ne6766100 0.0 1024771
16:00+15ne686369 0.0 1023675
19:00+13ne587579 0.0 1024556
22:00+12n3677100 0.0 1026470